This is the latest recevied weather packets stored in our database for station/object K6GMW. If no packets are shown the sender has not sent any weather packets the latest 10 day(s).
| Time | Temp. | Humidity | Pressure | Rain* | Wind** | Luminosity | Snow |
|---|---|---|---|---|---|---|---|
| 1778002991 | 26.67° C | 72% | 1007.7 hPa | 0 mm | - | 444 W/m² | - |
| 1778002686 | 26.67° C | 72% | 1007.6 hPa | 0 mm | - | 736 W/m² | - |
| 1778002383 | 26.11° C | 75% | 1007.7 hPa | 0 mm | - | 525 W/m² | - |
| 1778002080 | 26.11° C | 73% | 1007.7 hPa | 0 mm | - | 433 W/m² | - |
| 1778001777 | 26.11° C | 74% | 1007.8 hPa | 0 mm | - | 395 W/m² | - |
| 1778001472 | 26.11° C | 74% | 1007.7 hPa | 0 mm | - | 488 W/m² | - |
| 1778001169 | 25.56° C | 74% | 1007.6 hPa | 0 mm | - | 997 W/m² | - |
| 1778000866 | 25.56° C | 75% | 1007.7 hPa | 0 mm | - | 509 W/m² | - |
| 1778000563 | 25.56° C | 76% | 1007.9 hPa | 0 mm | - | 684 W/m² | - |
| 1777999954 | 25° C | 75% | 1007.8 hPa | 0 mm | - | 408 W/m² | - |
| 1777999650 | 25° C | 77% | 1007.9 hPa | 0 mm | - | 476 W/m² | - |
| 1777999347 | 24.44° C | 78% | 1007.9 hPa | 0 mm | - | 536 W/m² | - |
| 1777999045 | 24.44° C | 78% | 1008.2 hPa | 0 mm | - | 350 W/m² | - |
| 1777998744 | 23.89° C | 78% | 1008.2 hPa | 0 mm | - | 271 W/m² | - |
| 1777998441 | 23.89° C | 79% | 1008.2 hPa | 0 mm | - | 231 W/m² | - |
| 1777998138 | 23.89° C | 78% | 1008.2 hPa | 0 mm | - | 260 W/m² | - |
| 1777997834 | 23.89° C | 79% | 1008.1 hPa | 0 mm | - | 319 W/m² | - |
| 1777997532 | 23.89° C | 79% | 1008.4 hPa | 0 mm | - | 210 W/m² | - |
| 1777997229 | 23.89° C | 79% | 1008.2 hPa | 0 mm | - | 281 W/m² | - |
| 1777996927 | 23.33° C | 79% | 1008.4 hPa | 0 mm | - | 216 W/m² | - |
| 1777996623 | 23.33° C | 79% | 1008.2 hPa | 0 mm | - | 222 W/m² | - |
| 1777996319 | 23.33° C | 80% | 1008.2 hPa | 0 mm | - | 248 W/m² | - |
| 1777996016 | 23.33° C | 80% | 1008 hPa | 0 mm | - | 226 W/m² | - |
| 1777995712 | 23.33° C | 80% | 1008.1 hPa | 0 mm | - | 206 W/m² | - |
| 1777995409 | 23.33° C | 80% | 1008.1 hPa | 0 mm | - | 195 W/m² | - |
* Rain latest hour (hover to see other rain measurements)
** Current wind speed in m/s (hover to see current wind gust speed)